Retour au catalogue

STARLINK-36981

ActifCommunicationsSSO
NORAD 68148·PAYLOAD·🇺🇸 United States

Lancé Mar 13, 2026 depuis Vandenberg Space Force Base

Loading…

Prochains Passages (prochaines 24 heures)

TLE

FraisSource: CelesTrak SupGP

Époque: Sep 14, 2026, 20:58 UTC

1 68148C 26049G   26257.87409722  .00028390  00000+0  88147-3 0  2578
2 68148  97.2837 277.9288 0001582  88.4776 145.1564 15.33418594    14

Suivez STARLINK-36981 en temps réel avec AllMySat

Download on the App Store